Location: Poughquag
(41.6090°N, 73.6820°W)
Time: 12:18:02
(UTC-04:00)

Tiros 1 - Pass Details

Date: 06 June 2020
Orbit: 630 x 664 km, 48.4° (Epoch: 06 July)

Event Time Altitude Azimuth Distance (km) Brightness Sun altitude
Rises 16:14:37 0° 298° (WNW) 2,961 11.1 44.2°
Reaches altitude 10° 16:16:58 10° 298° (WNW) 2,043 10.5 43.8°
Maximum altitude 16:21:41 88° 213° (SSW) 644 8.0 42.9°
Drops below altitude 10° 16:26:20 10° 121° (ESE) 2,014 9.4 42.1°
Sets 16:28:39 0° 121° (ESE) 2,915 10.1 41.6°
